Regional Weather Roundup
Issued by NWS

Home | Current Version | Previous Version | Graphics & Text | Print | Product List | Glossary On
Versions: 1 2 3 4 5 6 7 8 9 10 11 12 13 14 15 16 17 18 19 20 21 22 23 24 25 26 27 28 29 30 31 32 33 34 35 36 37 38 39 40 41 42 43 44 45 46 47 48 49 50
768
ASUS45 KBOI 190910
RWRID

IDAHO REGIONAL WEATHER ROUNDUP
NATIONAL WEATHER SERVICE BOISE ID
200 AM MST SUN FEB 19 2017

NOTE: "FAIR" INDICATES FEW OR NO CLOUDS BELOW 12000 FEET
WITH NO SIGNIFICANT WEATHER AND/OR OBSTRUCTIONS TO VISIBILITY

IDZ012-014-191000-
SOUTHWEST IDAHO


CITY           SKY/WX    TMP DP  RH WIND       PRES   REMARKS
BOISE          CLOUDY    42  39  89 SE9       29.51R
CALDWELL       CLOUDY    39  38  96 CALM      29.51S
MOUNTAIN HOME  CLOUDY    39  39 100 E6        29.51S WCI  35
$$

IDZ016-017-191000-
SOUTHCENTRAL IDAHO


CITY           SKY/WX    TMP DP  RH WIND       PRES   REMARKS
BURLEY         LGT RAIN  42  38  85 SW8       29.55S
JEROME         LGT RAIN  39  38  96 SE7       29.55S WCI  34
TWIN FALLS     LGT RAIN  40  36  86 SW10      29.55R WCI  33
$$

IDZ019>023-191000-
SOUTHEAST IDAHO


CITY           SKY/WX    TMP DP  RH WIND       PRES   REMARKS
IDAHO FALLS    LGT RAIN  40  38  93 S14       29.53S WCI  32
POCATELLO      HVY RAIN  39  37  92 W16G30    29.57R FOG     WCI  30
REXBURG        LGT RAIN  38  37  97 S9        29.52F WCI  31
$$

IDZ006-010-011-018-031-032-191000-
CENTRAL IDAHO MOUNTAINS


CITY           SKY/WX    TMP DP  RH WIND       PRES   REMARKS
MCCALL         CLOUDY    33  31  92 S3        29.46R
HAILEY         CLOUDY    32  32 100 CALM      29.55S
STANLEY          N/A     34  31  88 S3        29.48R
SALMON         CLOUDY    39  34  81 SW5       29.44R
CHALLIS        CLOUDY    35  33  92 E3        29.45S
$$

IDZ002-004-006-007-026-191000-
NORTHERN IDAHO


CITY           SKY/WX    TMP DP  RH WIND       PRES   REMARKS
LEWISTON       MOCLDY    37  35  92 SE7       29.49S WCI  32
LOWELL           N/A     35  33  92 CALM      29.55R
COEUR D`ALENE  CLOUDY    33  32  96 SW3       29.48R
MULLAN PASS    LGT SNOW  26  26 100 SW8       29.38S FOG     WCI  18
$$




USA.gov is the U.S. government's official web portal to all federal, state and local government web resources and services.